RH
2 2 2 2 2 2 2 2 2 2 2 2 2 2 2 2 2 2 2 2 2 2 2 2 2 2 3 3 3 4 4 5 6 7 8 10 11 12 13 14 15 18 22 26 31 34 38 42 45 46 47 47 47 45 43 43 42 39 35 34 32 30 27 26 25 25 25 26 27 28 28 26 26 25 23 21 19 16 14 12 9 8 7 7 6 6
2 2 2 2 2 2 2 2 2 2 2 2 2 2 2 2 2 2 2 2 2 2 2 2 2 3 3 3 4 4 5 5 5 6 7 9 10 11 12 13 14 16 18 22 28 33 38 43 47 48 49 51 52 52 48 45 45 43 39 38 36 34 31 28 27 26 25 27 28 29 29 28 27 27 25 22 20 17 15 13 10 9 8 7 7 7
2 2 2 2 2 2 2 2 2 2 2 2 2 2 2 2 2 2 2 2 2 2 2 2 3 3 3 3 4 4 5 4 5 5 6 7 8 10 12 12 13 14 16 19 23 29 36 42 48 50 52 55 57 59 55 49 47 46 43 41 40 38 35 31 29 27 27 28 30 31 31 30 29 28 26 23 20 18 15 13 11 9 8 8 7 7
2 2 2 2 2 2 2 2 2 2 2 2 2 2 2 2 2 2 2 2 2 2 2 2 3 3 3 4 3 4 4 4 4 4 5 5 7 9 11 12 13 13 15 17 20 24 31 39 46 51 55 58 60 63 62 54 49 49 46 44 44 42 40 35 31 30 29 30 32 33 32 32 31 30 28 24 20 18 15 13 11 10 9 8 8 7
2 2 2 2 2 2 2 2 2 2 2 2 2 2 2 2 2 2 2 2 2 2 2 2 3 3 3 4 3 3 4 4 4 4 4 4 5 8 10 12 13 13 14 16 18 21 25 33 42 51 56 58 60 63 65 59 52 50 49 48 47 47 45 40 35 33 31 32 34 35 35 34 34 32 28 25 21 18 16 14 12 10 9 8 8 8
2 2 2 2 2 2 2 2 2 2 2 2 2 2 2 2 2 2 2 2 2 2 2 2 3 3 3 3 4 4 4 4 4 4 4 4 5 7 9 11 12 13 14 16 18 20 24 30 38 45 48 51 55 61 65 62 54 51 52 52 52 51 50 46 40 36 34 34 36 37 37 37 35 34 30 27 24 21 18 15 13 11 10 9 8 8
2 2 2 2 2 3 3 2 3 2 2 2 2 2 2 2 3 2 2 2 2 2 3 3 3 3 3 3 3 4 4 4 4 4 4 4 5 6 9 11 12 13 15 16 18 20 25 32 37 39 42 46 53 60 65 64 57 53 54 55 56 55 55 52 45 41 38 36 38 39 39 39 37 36 33 30 26 22 19 16 14 12 10 9 9 8
2 2 3 3 3 3 3 3 3 2 2 3 2 2 2 2 3 3 2 3 2 3 3 3 3 3 3 3 3 4 4 4 4 4 4 4 5 6 8 10 12 13 15 17 19 22 26 33 37 39 41 45 51 59 65 65 59 56 57 59 61 60 59 56 50 45 42 40 40 41 42 41 40 38 36 32 28 23 20 17 15 13 11 10 9 8
2 3 3 3 3 3 3 3 3 3 3 2 2 2 3 3 3 3 3 3 3 3 3 3 3 3 3 3 3 3 3 3 4 4 4 4 5 6 7 9 11 13 16 18 20 23 28 35 38 38 40 44 50 58 65 67 62 59 61 64 66 66 63 60 54 48 46 45 44 44 44 44 43 41 38 34 30 24 20 18 15 13 11 10 9 8
3 3 3 3 3 3 3 3 3 3 3 3 3 2 3 3 3 3 3 3 3 3 3 3 3 3 3 3 3 3 3 3 3 4 4 5 5 6 7 9 12 14 17 19 21 23 29 35 37 37 40 43 48 57 64 67 66 64 65 70 72 71 68 63 58 52 50 49 49 48 47 47 46 44 40 36 32 26 22 19 17 14 12 10 9 8
3 3 3 3 3 3 3 3 3 3 3 3 3 3 3 3 3 3 3 3 3 3 3 3 3 3 3 3 3 3 3 3 3 4 4 5 6 7 7 10 12 15 18 20 21 24 30 36 37 37 40 44 48 55 62 67 69 69 71 76 79 77 73 68 62 57 54 54 54 54 52 50 49 47 43 38 33 29 24 21 18 16 13 11 9 9
3 3 3 3 3 3 3 3 3 3 3 3 3 3 3 3 3 3 3 3 3 3 3 3 3 3 3 3 3 3 3 3 3 4 4 5 6 7 8 10 12 15 18 20 22 25 31 36 38 39 41 45 49 54 62 68 71 74 77 82 84 82 78 72 67 61 58 58 59 59 58 55 52 50 46 40 35 31 26 23 20 17 15 12 10 9
3 3 3 3 3 3 3 3 3 3 3 3 3 3 3 3 3 3 3 3 3 4 4 3 3 3 3 4 3 3 3 3 3 4 4 5 6 7 8 10 12 15 17 20 23 27 33 37 38 41 42 45 50 55 62 68 72 75 79 85 87 86 83 77 71 67 63 63 64 65 64 61 57 54 49 42 37 32 28 24 21 19 16 13 11 9
3 3 3 3 3 3 3 3 3 3 3 3 3 3 3 3 3 3 4 3 3 4 4 4 4 3 4 4 4 4 3 3 4 4 4 5 6 7 9 10 12 15 17 20 24 29 35 38 39 40 41 43 49 57 62 68 73 75 76 82 86 87 87 81 75 72 69 69 71 70 69 67 63 57 51 45 38 33 29 24 21 19 17 14 12 10
3 3 3 3 3 3 3 3 3 3 3 3 3 4 3 4 4 4 4 4 4 4 4 4 4 4 4 4 4 4 4 3 4 4 5 5 6 7 9 10 12 14 18 21 25 31 36 38 38 38 39 42 49 58 64 68 74 74 73 75 80 84 86 83 80 77 75 76 77 77 75 71 68 62 55 47 40 34 29 24 21 19 17 15 13 10
3 3 3 3 3 3 3 3 3 4 3 3 4 4 3 4 4 4 4 4 4 4 4 4 4 4 4 4 4 4 4 4 3 4 5 5 6 7 10 11 12 15 18 22 27 33 37 37 36 36 38 42 49 58 65 70 75 75 73 71 72 77 81 84 84 83 82 82 82 83 82 77 73 67 59 49 41 34 29 25 21 20 18 16 13 11
3 3 3 3 3 3 3 3 4 3 3 4 4 4 4 4 4 4 4 4 4 4 4 4 5 5 4 4 4 4 4 4 4 4 5 6 6 8 10 12 13 16 19 23 28 33 37 36 35 36 39 42 49 57 65 72 76 75 74 70 69 72 77 83 87 88 89 88 87 87 87 82 77 72 63 52 43 35 29 25 22 20 19 17 14 12
3 3 3 3 3 3 4 4 4 4 4 4 4 3 4 4 4 4 4 4 4 4 4 4 5 5 4 4 4 4 4 4 4 4 5 6 7 8 11 13 15 17 20 23 28 33 35 35 35 38 41 44 49 55 63 71 76 75 73 72 71 73 74 76 79 83 87 89 89 89 89 87 81 76 67 55 45 37 30 25 23 21 20 18 15 12
3 3 3 3 3 3 4 4 4 4 3 3 4 4 4 4 4 4 4 5 5 5 5 4 5 6 6 4 5 4 4 4 4 4 5 7 7 8 11 14 16 18 21 24 28 32 34 34 36 39 43 46 49 54 61 68 73 74 72 71 71 73 74 70 67 69 75 82 87 89 92 91 86 80 72 59 47 39 32 26 23 22 21 19 16 13
3 3 3 3 3 4 4 4 4 4 4 4 4 4 4 4 4 5 5 5 5 5 6 5 5 7 7 5 5 5 5 5 4 4 5 6 7 8 11 14 16 19 22 24 28 31 32 33 36 39 43 47 50 53 59 65 69 71 70 70 69 70 72 70 65 64 67 73 82 89 93 95 91 84 76 63 51 41 34 28 24 23 21 19 17 14
3 3 3 3 3 4 4 4 4 4 3 4 4 4 4 4 4 5 5 5 6 6 6 6 5 7 8 7 6 6 5 5 4 4 4 6 6 8 11 15 17 20 23 25 28 31 32 33 36 39 43 47 50 53 57 62 66 66 66 67 67 68 69 70 68 66 67 72 79 88 95 99 96 90 81 68 54 44 36 30 26 23 22 21 18 15
3 3 3 3 3 4 4 4 4 4 4 4 4 4 4 5 5 5 5 5 6 6 7 7 5 6 8 7 6 6 5 5 5 5 4 6 6 8 12 16 18 21 24 27 29 32 33 36 38 40 43 47 50 53 56 60 63 63 64 64 65 67 69 72 72 70 70 73 80 88 97 102 100 95 88 74 59 47 38 31 27 24 23 22 19 16
3 3 4 3 4 4 3 4 3 4 4 4 5 5 5 5 5 6 6 6 6 6 7 7 6 6 7 7 6 6 6 6 6 6 5 6 7 8 12 17 19 22 26 28 31 33 35 38 40 42 44 46 50 53 55 59 61 61 62 62 63 65 67 71 76 77 75 73 78 87 94 100 100 98 93 81 65 52 40 32 27 25 24 22 20 18
3 3 4 4 4 4 4 4 4 4 4 4 5 5 5 6 6 6 7 7 7 7 8 8 7 6 6 7 7 6 6 7 7 8 8 7 8 9 12 17 21 24 27 30 32 34 37 40 43 45 45 46 48 51 54 57 59 60 60 61 63 65 67 69 74 82 83 79 78 83 89 95 99 100 96 87 72 57 43 33 27 25 25 23 21 19
3 4 4 4 4 4 4 4 4 4 4 5 5 6 7 7 7 7 7 7 8 7 7 8 7 6 6 7 7 6 7 7 8 10 10 9 9 10 13 19 23 24 28 31 33 35 38 42 45 48 49 48 48 49 52 54 56 57 58 59 61 64 67 71 75 84 91 90 84 82 85 89 94 98 98 91 79 63 46 33 28 27 25 24 23 20
3 3 4 4 4 4 4 4 5 5 4 5 6 6 8 8 8 8 7 8 8 8 7 8 8 6 6 7 6 6 7 7 8 10 10 11 12 12 14 20 24 26 28 32 34 35 38 43 46 49 51 51 52 52 53 54 56 57 59 61 63 65 69 73 80 89 97 98 92 87 85 86 90 96 98 95 86 71 51 35 29 28 26 24 24 21
4 4 4 5 4 5 5 5 6 5 5 5 6 7 8 8 8 8 8 8 9 8 7 7 8 7 6 7 6 6 7 7 8 10 9 11 13 14 16 21 25 27 29 32 35 35 38 43 47 50 51 52 54 56 57 58 59 60 62 64 65 67 70 75 84 94 100 100 97 93 89 87 89 93 96 98 93 79 59 39 29 29 27 25 24 22
4 4 5 5 5 5 6 7 7 6 6 6 6 7 9 9 8 8 8 9 9 8 7 8 8 7 7 8 7 6 8 7 8 10 10 11 14 15 17 22 26 28 30 33 35 36 38 42 47 50 52 52 54 57 58 60 61 62 64 65 66 67 71 78 87 96 100 100 98 96 94 90 91 93 94 97 97 88 70 47 31 28 28 26 24 23
5 5 5 5 5 5 6 7 7 6 6 6 6 8 10 9 9 8 9 9 9 8 8 8 8 7 8 10 8 7 9 9 9 11 12 16 18 17 19 24 27 29 30 33 35 37 38 41 46 50 52 53 55 58 60 61 63 64 65 66 66 69 75 83 90 96 100 101 98 97 97 94 94 95 95 96 97 94 81 57 36 29 29 26 24 24
5 5 5 5 5 5 5 6 7 7 6 6 6 9 11 10 9 9 9 9 9 8 9 9 8 7 9 11 8 8 9 9 11 13 16 21 22 20 21 26 29 30 31 34 36 37 38 40 46 51 53 54 56 59 61 63 64 65 67 68 68 71 80 88 93 96 100 102 99 96 97 97 98 98 98 97 97 97 90 70 45 32 29 27 25 24
6 5 5 5 5 5 5 5 6 6 6 6 7 9 11 11 10 10 9 9 9 9 9 10 9 8 10 10 8 8 9 10 12 15 19 25 25 23 24 28 30 31 32 34 36 37 39 40 44 50 52 54 57 60 62 64 65 66 69 70 71 76 84 91 95 98 101 103 101 97 96 97 99 100 100 100 99 98 96 83 58 39 31 28 26 25
6 6 6 6 5 5 6 6 6 6 6 6 8 10 11 11 10 9 9 9 9 9 10 10 9 9 10 10 8 8 8 10 14 18 24 28 28 26 28 31 31 32 33 35 37 38 39 40 43 48 52 55 59 62 64 66 67 69 71 72 74 81 88 92 97 100 101 102 102 98 95 95 97 100 102 103 102 99 97 91 72 51 37 30 27 26
6 7 7 7 6 5 5 6 6 6 6 7 9 11 12 11 10 9 9 9 9 10 11 10 9 10 11 11 10 9 8 10 15 21 29 33 30 29 32 34 34 34 35 36 38 40 40 41 44 48 53 57 60 64 67 68 69 71 75 78 80 84 88 92 97 100 99 100 102 99 96 94 95 98 101 103 104 102 98 94 82 63 45 34 28 26
8 8 8 9 8 7 7 8 8 7 7 8 10 11 11 11 10 9 9 9 9 10 11 10 9 10 11 12 12 11 10 12 16 24 34 37 34 34 37 38 37 37 37 38 40 42 42 44 46 50 55 61 64 67 70 71 73 76 81 84 84 85 90 95 98 99 99 100 101 100 98 96 93 95 98 101 103 104 100 95 88 74 56 41 32 28
10 10 10 10 9 9 8 9 9 8 7 9 12 13 13 12 12 10 8 8 9 10 10 8 9 11 12 14 15 15 15 15 18 27 38 41 39 40 42 43 42 40 40 42 43 44 45 46 49 53 59 64 67 71 74 75 77 81 85 86 85 87 91 94 96 97 98 100 101 100 99 98 94 93 96 99 100 102 101 97 91 82 65 48 36 29
11 11 11 11 11 11 11 10 10 9 7 10 14 14 13 12 12 11 8 7 10 11 9 7 9 12 13 15 17 19 20 19 19 29 41 45 44 46 47 48 48 46 44 45 45 45 48 50 53 59 66 70 73 75 78 80 83 86 87 86 86 88 88 87 89 91 91 96 102 102 99 98 96 92 93 98 100 100 101 99 94 86 72 55 41 32
12 12 12 12 12 12 12 11 11 10 8 11 16 16 15 16 16 15 10 7 10 11 9 9 12 14 15 17 20 24 27 25 22 29 43 48 49 54 57 57 59 58 54 51 49 49 51 54 59 67 74 77 78 80 83 86 87 87 86 80 77 78 77 76 79 79 75 83 96 102 101 98 96 94 93 95 99 100 100 100 97 90 79 62 47 37
14 15 15 15 15 15 16 14 13 12 11 15 21 22 23 24 24 22 16 10 9 11 11 13 16 18 20 22 25 29 32 30 28 33 44 51 55 62 67 69 71 72 68 63 58 55 56 58 65 75 81 81 81 83 83 81 78 74 71 65 59 59 62 62 62 61 60 64 74 89 101 102 95 93 93 94 98 100 100 100 98 94 85 68 53 43
25 24 23 22 22 22 22 21 20 18 17 24 31 33 34 34 32 29 21 12 10 12 14 17 20 24 27 31 33 35 37 39 39 43 51 59 64 71 76 79 79 80 79 73 67 63 62 67 75 82 84 83 80 76 69 64 59 53 49 46 40 38 41 40 38 40 43 42 42 57 85 102 98 93 93 95 98 100 100 100 99 97 90 74 58 48
45 43 41 40 39 38 36 33 32 29 29 36 43 44 41 39 37 34 26 19 18 20 21 24 28 32 37 39 40 41 45 50 53 57 64 71 75 81 88 91 89 87 86 81 75 72 72 77 84 86 84 79 71 60 51 43 37 32 27 26 23 20 21 19 18 21 22 21 20 26 56 92 102 95 95 98 100 100 100 100 100 98 92 78 63 52
71 68 66 63 59 55 50 46 45 43 42 46 50 49 45 43 43 41 35 31 31 32 35 37 40 43 46 47 48 50 55 62 67 72 79 83 87 91 97 100 98 95 92 88 83 81 82 86 89 88 82 71 56 44 36 27 20 17 15 14 12 12 11 10 11 12 10 12 13 13 38 84 104 97 95 100 100 100 100 100 99 99 94 82 68 56
82 88 91 89 85 78 70 65 62 59 56 56 56 54 51 49 49 47 45 44 44 47 52 55 57 59 58 58 61 63 67 74 80 86 91 93 95 97 99 102 102 99 98 96 92 90 90 91 91 87 75 58 43 34 28 20 15 15 13 11 10 10 10 9 9 10 10 11 12 11 31 74 101 98 96 100 100 99 100 100 99 99 96 87 74 61
60 76 89 94 96 97 93 88 83 78 75 73 71 67 63 58 57 57 56 55 57 63 72 76 77 79 79 79 81 83 86 91 94 96 99 100 101 101 101 101 103 101 101 101 99 97 95 94 91 82 63 45 35 30 23 18 17 17 15 14 13 10 10 9 8 11 12 11 13 12 21 56 91 100 98 99 100 100 100 100 100 100 97 91 80 66
40 57 72 78 86 98 104 99 96 96 98 97 92 85 78 73 72 75 75 72 73 79 88 91 89 90 93 96 95 91 90 90 89 91 95 94 94 97 99 99 101 101 101 102 101 99 97 95 88 70 50 39 33 27 20 18 19 19 18 18 16 13 12 10 8 11 11 9 12 11 15 49 89 102 99 99 101 100 100 100 100 100 98 93 84 72
28 39 50 55 65 84 90 83 84 92 97 101 102 99 96 93 91 93 95 94 94 96 99 100 99 98 101 100 94 86 83 82 82 84 86 82 81 87 90 91 95 99 100 101 102 99 96 92 79 57 42 37 31 21 17 18 19 20 20 19 18 15 14 11 9 10 10 9 11 9 17 49 83 95 98 101 100 99 100 100 99 100 100 96 88 77
19 31 45 52 58 64 56 50 68 90 95 96 100 101 101 100 99 99 98 94 96 99 98 95 93 92 91 86 77 70 69 70 70 74 77 79 81 84 84 84 90 98 101 101 101 100 94 82 63 43 33 31 23 17 16 17 17 19 19 19 19 17 15 13 11 11 10 10 9 9 17 42 70 87 97 102 100 99 101 100 100 100 100 98 91 81
21 39 56 61 63 65 56 54 76 96 96 96 100 100 101 102 102 100 93 81 79 81 79 75 71 69 66 63 57 53 52 51 50 53 62 74 83 86 86 88 93 99 102 101 99 97 86 67 46 31 24 21 17 15 15 15 15 18 18 18 19 18 17 15 12 11 12 10 10 10 13 31 63 89 100 100 99 100 100 99 100 100 100 100 95 84
26 41 51 58 65 69 67 70 79 80 73 79 90 92 91 89 86 82 74 63 57 55 52 50 49 47 45 42 38 36 35 34 35 37 45 63 79 88 93 98 99 100 97 92 90 86 70 48 31 21 17 16 15 14 14 14 14 15 16 18 20 19 18 17 14 13 13 12 11 11 11 24 56 89 101 100 99 101 100 99 100 100 100 100 97 89
22 25 32 43 46 41 39 48 59 58 52 58 68 69 63 60 56 51 44 36 31 28 27 27 26 25 24 22 19 18 18 22 28 33 41 56 69 77 87 96 101 101 95 83 78 72 55 32 20 16 14 14 14 13 13 13 13 14 15 16 19 20 20 18 16 15 15 14 13 12 12 20 42 71 94 102 100 99 101 100 99 100 100 100 99 96
10 8 10 15 16 14 14 21 30 32 31 33 39 39 35 32 32 29 23 18 14 12 12 13 13 13 13 12 12 12 12 15 22 29 38 51 58 63 73 86 93 94 87 74 66 60 44 25 16 14 14 14 13 12 13 13 13 14 14 15 17 20 20 20 19 18 17 17 15 12 13 19 27 47 78 100 101 99 100 100 99 100 100 99 101 100
13 12 11 9 8 8 8 10 11 13 14 16 18 17 15 14 13 11 9 8 8 8 10 11 10 9 9 9 10 12 12 13 16 20 27 38 47 54 67 83 90 85 73 59 49 45 39 29 22 19 17 15 14 13 13 13 13 13 14 14 16 19 21 21 22 20 18 18 17 13 12 14 16 29 63 94 102 99 100 100 99 100 100 99 100 101
Wind_Speed
11 11 12 13 14 15 16 17 18 19 21 22 24 25 27 28 29 30 31 32 34 36 37 39 39 39 40 40 40 40 39 38 38 38 37 36 36 37 37 38 38 38 38 39 39 40 41 42 43 44 44 45 46 47 47 48 49 51 52 53 55 57 59 61 63 64 65 66 67 69 70 72 74 75 77 79 80 81 81 80 79 76 74 72 70 67
9 11 12 13 14 15 16 17 18 19 21 23 24 26 27 28 29 30 32 33 35 36 38 39 40 40 41 40 40 40 39 39 38 38 38 37 37 37 38 38 38 39 39 40 40 41 42 43 44 45 45 46 47 47 48 48 50 51 53 54 55 57 59 60 62 64 65 66 67 68 70 72 74 75 77 78 80 81 81 81 79 77 75 73 71 69
11 13 13 13 14 15 16 17 18 20 21 23 25 26 28 29 30 31 32 34 35 36 38 39 40 41 41 40 40 40 39 39 39 38 38 38 38 38 38 39 39 40 40 41 41 42 43 44 45 46 46 47 48 48 49 49 50 51 53 54 56 57 59 60 62 64 65 66 67 68 70 71 73 75 76 78 79 80 81 81 80 78 76 74 73 71
13 13 13 13 14 15 16 18 19 20 21 23 25 26 28 30 31 32 34 34 36 37 38 39 40 41 40 39 40 41 40 39 39 39 39 39 39 39 39 40 40 41 41 41 42 43 44 45 46 47 47 48 49 49 50 50 50 51 53 55 56 58 59 60 62 64 65 67 68 69 70 72 73 75 76 78 79 80 80 80 80 79 77 76 74 73
13 12 13 14 14 15 16 18 19 21 22 23 25 27 29 31 32 33 34 35 36 37 38 39 40 40 40 40 41 41 41 40 40 40 41 40 40 40 40 41 41 42 42 42 43 44 45 46 47 47 48 49 50 50 50 50 50 51 53 55 57 58 60 61 62 63 65 67 69 70 71 73 74 75 76 77 78 79 79 79 78 79 78 77 76 75
12 12 13 14 14 16 17 18 20 21 23 24 26 28 30 31 33 34 35 36 37 37 38 40 41 41 41 41 41 41 41 42 42 42 42 42 41 41 41 41 42 43 43 43 44 45 46 47 48 48 49 50 50 50 51 51 51 51 53 55 57 59 60 61 62 63 65 67 69 70 71 73 73 75 75 76 77 78 79 79 79 79 79 78 77 77
11 12 13 14 15 16 18 20 21 23 25 26 27 28 30 31 33 34 35 36 37 38 38 40 42 42 41 42 42 41 42 43 44 44 43 43 42 42 42 42 42 43 44 44 44 45 47 48 49 50 50 51 51 51 51 51 51 51 52 55 57 59 61 61 62 63 64 66 68 70 71 73 73 74 75 77 78 79 79 80 79 79 79 79 78 78
11 12 13 14 16 18 20 21 23 24 25 27 28 29 30 31 33 34 35 36 38 39 39 40 42 43 42 43 43 42 42 43 45 45 44 44 43 43 42 42 42 43 44 44 45 46 47 48 50 51 51 52 52 52 51 51 51 51 52 54 56 58 60 61 62 63 64 66 68 70 72 73 74 75 75 77 78 79 80 80 80 80 79 79 79 79
12 13 14 16 17 19 21 22 24 25 26 27 28 29 30 32 33 35 36 37 38 40 41 41 42 43 42 43 44 44 44 44 45 46 45 44 44 44 43 43 43 43 43 44 45 46 47 49 50 51 52 53 53 52 52 52 52 51 52 53 55 57 60 61 62 63 64 66 68 70 72 73 74 75 76 77 78 79 80 80 80 80 79 79 79 79
13 14 16 17 19 20 21 23 24 26 27 28 29 30 31 32 34 35 36 37 39 40 42 43 43 43 42 44 46 46 46 46 46 46 45 44 44 44 44 43 43 43 44 44 45 46 48 49 51 52 53 54 54 53 53 52 52 51 51 53 54 56 58 60 61 63 64 66 68 70 71 73 74 74 76 77 78 79 79 80 80 80 80 80 80 80
15 16 17 18 20 21 22 24 25 27 28 29 30 31 32 33 35 36 36 38 39 40 42 44 45 45 45 46 47 47 47 48 47 47 46 45 44 45 45 44 44 44 44 45 46 47 48 50 51 53 54 54 54 54 54 53 52 51 51 52 53 55 57 59 61 62 64 66 68 70 71 72 73 74 75 76 77 78 79 80 81 81 81 81 81 80
16 17 19 20 21 22 23 25 26 28 29 30 31 32 33 34 35 36 37 39 40 40 42 45 46 47 46 47 48 48 49 49 48 48 47 46 45 45 45 45 44 44 44 45 46 47 48 50 51 53 53 54 54 54 54 53 52 52 51 52 53 55 56 58 60 61 63 65 67 69 71 72 73 74 74 76 77 78 79 80 81 81 82 82 82 82
17 18 20 21 22 24 25 26 27 29 30 31 32 33 34 35 36 37 38 40 41 41 42 44 46 48 48 47 48 49 50 51 50 49 48 47 46 45 45 46 45 45 45 46 47 47 48 50 51 52 53 53 54 54 53 53 53 52 52 52 53 54 56 57 59 60 62 64 66 68 70 72 73 73 74 75 76 78 79 80 81 82 82 83 83 83
18 20 21 22 24 25 26 28 29 30 31 32 33 34 36 37 38 39 40 41 42 42 43 44 45 48 49 47 47 49 50 52 51 50 50 48 47 46 46 46 46 45 46 46 47 47 48 49 51 52 53 53 53 53 53 53 53 54 54 54 54 55 56 57 58 60 61 63 65 67 69 71 72 73 74 75 76 78 80 81 82 82 83 84 84 84
20 21 22 23 25 26 28 29 30 31 33 34 35 36 37 38 39 40 41 43 44 44 44 44 44 48 50 48 47 48 50 53 52 51 51 49 48 47 46 47 46 46 46 46 47 47 48 49 50 52 53 53 53 53 53 54 54 55 56 56 56 56 56 57 58 60 61 63 65 67 68 70 72 73 74 75 76 78 79 81 82 83 84 84 85 85
21 23 24 25 26 28 29 31 32 33 34 35 36 37 38 39 40 41 42 44 46 46 46 46 45 47 52 50 49 50 51 53 54 53 52 50 50 48 46 47 47 46 46 46 46 47 47 49 50 52 53 53 52 52 53 54 55 56 57 57 57 57 57 58 59 60 62 64 65 67 68 69 71 72 73 74 76 78 79 81 82 83 84 84 85 85
23 24 25 26 28 29 30 32 34 35 36 37 38 39 40 40 41 42 44 44 46 47 48 49 47 48 52 52 51 52 53 54 55 54 53 52 50 49 47 47 47 45 45 45 46 47 47 49 50 51 52 52 52 52 53 55 56 56 57 59 59 59 58 58 59 61 63 64 66 67 68 68 70 71 72 73 75 77 79 80 81 83 84 84 85 85
24 26 27 28 29 30 31 33 35 36 38 39 40 41 42 42 43 44 45 46 47 48 48 51 50 48 52 53 52 53 54 54 54 54 54 52 51 50 48 47 46 45 45 45 45 46 47 48 50 51 52 52 52 52 53 55 56 56 57 58 59 60 60 60 60 61 62 64 65 66 67 68 68 69 71 72 74 76 78 79 81 82 84 84 85 85
26 26 28 29 30 31 33 35 36 37 39 40 41 42 43 44 45 46 47 47 49 50 50 52 51 47 50 54 53 53 54 53 54 55 54 53 52 50 48 46 46 45 44 45 45 46 47 48 50 51 52 52 52 53 53 54 56 57 57 58 59 60 61 61 61 61 61 62 64 65 67 67 67 68 69 71 73 75 77 79 80 82 83 84 85 85
27 27 29 31 32 34 35 36 38 39 39 40 42 44 45 46 46 47 48 48 50 52 51 54 52 46 48 54 53 53 55 54 55 56 55 54 53 51 49 47 46 44 43 44 44 45 47 48 50 51 52 53 53 53 53 55 56 57 58 59 60 61 61 62 63 62 61 62 63 64 66 67 67 68 68 70 71 74 76 78 79 81 83 83 84 85
29 29 30 32 34 36 36 38 39 40 40 40 42 44 45 47 48 48 49 49 51 52 52 55 55 47 45 51 53 54 56 55 55 56 56 55 54 52 49 47 46 44 42 43 44 44 46 47 49 51 52 53 53 53 54 55 56 57 58 59 61 62 63 63 64 64 63 62 62 64 65 67 67 68 68 69 70 73 75 77 79 81 82 83 84 85
30 31 32 33 34 36 38 39 40 41 41 41 42 44 45 47 49 49 50 50 52 53 51 54 57 49 45 51 55 55 56 55 55 56 56 56 54 52 49 46 45 44 42 42 43 43 44 45 47 49 51 53 53 53 54 55 57 58 59 61 62 64 65 65 66 66 65 64 63 64 65 67 67 68 68 69 70 72 74 76 78 80 81 83 84 84
32 33 33 34 35 36 38 40 41 42 43 43 42 43 45 47 49 51 51 51 52 54 52 54 57 53 49 53 56 56 55 54 54 55 56 55 54 52 49 46 45 43 42 42 43 43 43 44 44 46 50 53 54 54 54 55 57 59 60 62 63 65 66 67 67 67 67 66 65 65 65 67 67 68 68 68 69 71 73 75 77 78 81 82 83 84
34 35 35 36 37 37 37 39 41 43 44 44 43 44 46 47 49 52 52 52 53 53 53 55 58 56 52 53 56 56 54 54 53 54 54 54 53 52 49 46 44 42 42 42 42 43 43 43 43 44 47 51 53 54 55 56 58 60 62 63 65 66 67 68 69 69 69 67 66 66 66 67 67 68 68 68 69 70 72 74 76 78 80 82 83 83
36 37 38 40 40 40 40 40 42 44 46 46 45 45 46 47 50 52 52 54 54 53 55 57 58 58 53 52 55 55 53 53 51 51 52 52 52 52 48 45 43 42 42 42 43 43 43 43 43 43 45 48 51 53 54 56 57 59 61 64 66 68 69 70 70 70 70 69 68 67 66 67 67 68 68 68 69 70 71 73 74 77 79 81 82 83
38 39 40 42 44 44 44 44 45 46 47 48 48 47 47 49 52 54 54 55 54 55 58 57 58 58 54 51 55 54 52 52 50 48 49 50 51 51 48 44 42 42 41 42 43 43 43 43 43 44 45 46 49 50 52 53 55 57 60 62 65 68 70 71 71 72 72 71 69 68 67 66 67 68 68 68 69 70 70 72 73 76 78 80 82 83
41 41 41 42 44 45 45 44 45 47 48 48 49 49 49 51 53 55 55 55 54 57 59 56 57 60 55 51 54 54 51 52 50 47 48 48 49 50 47 43 41 41 42 42 43 43 44 44 44 44 45 47 49 50 51 53 54 57 60 63 65 67 70 72 73 74 75 74 71 68 67 66 66 67 68 69 69 69 70 71 72 75 77 79 81 83
44 44 43 44 45 46 46 45 46 48 49 49 50 50 50 52 54 55 55 54 55 60 60 55 56 59 55 52 54 54 52 52 49 47 47 48 49 50 47 43 41 41 42 42 43 44 44 44 45 45 46 48 49 51 53 54 56 58 61 63 65 67 70 72 74 76 76 76 73 70 67 66 66 67 68 69 69 69 70 70 71 74 76 78 80 82
47 46 46 47 47 47 48 48 48 50 50 51 52 51 50 53 55 54 53 54 56 60 59 55 56 58 54 51 53 53 51 52 50 47 46 46 48 49 47 43 40 41 41 42 43 44 44 45 45 46 47 48 50 52 54 55 57 59 61 62 64 66 69 71 74 76 77 77 75 71 68 67 66 67 68 69 69 69 70 70 71 73 75 77 79 81
50 50 50 51 50 49 50 51 51 52 52 53 52 51 51 53 53 53 53 54 56 58 57 55 57 56 52 51 54 53 52 51 50 47 46 45 46 49 47 42 40 40 41 42 43 44 45 45 46 47 48 49 51 53 55 56 58 59 61 62 64 66 68 71 74 76 78 78 76 72 69 67 67 67 67 68 69 69 70 70 70 72 74 76 78 79
53 53 53 54 54 52 52 53 54 54 55 54 53 53 53 52 52 53 53 54 55 56 55 55 57 56 52 52 54 54 53 52 49 48 46 43 45 49 46 42 40 40 41 42 43 44 45 46 47 47 48 50 52 54 56 57 59 60 62 63 64 66 68 70 73 76 78 78 76 72 69 67 67 67 67 68 68 69 70 70 70 71 73 75 76 78
55 55 55 56 57 55 54 55 56 56 56 56 54 53 52 52 52 53 53 53 54 55 55 56 58 56 53 54 55 54 54 52 50 49 45 41 45 49 47 42 40 40 41 42 43 45 46 47 47 48 49 51 53 55 57 58 60 61 63 64 65 66 68 70 73 75 77 79 77 72 68 67 67 68 68 68 68 68 69 70 70 71 72 74 75 77
56 56 56 57 58 57 55 56 57 57 57 56 54 53 53 53 53 53 53 52 53 53 55 57 57 55 53 55 55 54 54 52 50 48 43 41 46 49 46 44 42 41 42 43 44 45 46 47 47 48 50 52 54 56 57 59 61 62 64 65 66 67 69 70 71 73 75 78 77 72 67 66 67 68 68 68 68 68 69 70 71 71 71 73 74 75
56 56 56 57 59 58 56 56 57 57 57 55 53 53 53 53 53 53 52 51 51 52 55 57 56 54 54 54 54 54 54 52 50 47 41 41 47 48 45 44 43 42 43 44 45 46 46 47 47 48 50 52 54 56 58 60 62 63 65 66 67 68 69 69 70 71 73 76 76 72 68 66 66 67 68 68 68 68 68 69 70 71 71 72 73 74
55 55 56 57 58 58 56 56 58 58 56 53 50 49 51 52 52 52 52 51 49 51 56 58 56 54 53 53 52 53 53 52 50 46 39 39 46 47 44 44 43 43 44 44 45 46 47 47 48 48 51 53 55 57 59 60 62 63 65 66 67 68 69 69 69 69 71 74 74 72 68 67 66 67 68 68 68 67 67 68 70 70 70 71 72 73
54 55 55 55 56 56 55 55 56 57 55 51 47 47 50 51 50 52 54 51 46 49 57 59 56 54 53 52 52 52 53 51 50 46 40 39 43 44 43 43 42 42 43 44 45 46 47 48 48 49 51 53 55 57 59 60 61 63 64 65 66 68 69 69 69 69 69 70 72 72 70 68 67 67 68 68 68 67 67 68 68 69 70 70 71 72
53 53 53 54 55 55 55 54 55 56 54 49 46 48 49 49 48 51 56 54 49 51 58 58 55 53 53 52 52 52 52 52 50 45 41 42 44 44 44 44 43 43 43 43 45 46 47 48 49 50 52 53 55 57 58 59 60 61 63 64 65 67 68 68 68 68 67 67 69 71 70 69 67 67 67 68 68 67 67 67 67 68 68 69 70 71
52 52 52 53 53 53 54 55 55 55 53 48 46 46 46 45 46 50 55 56 53 55 57 56 54 54 53 52 52 51 52 53 51 46 44 46 47 46 46 47 47 46 44 43 44 46 47 48 49 50 52 53 55 56 57 58 59 61 62 63 64 65 66 66 66 66 66 66 67 69 70 69 68 67 66 67 67 67 66 66 66 66 67 67 68 70
51 51 51 51 51 50 51 52 52 52 49 44 42 42 42 44 46 51 56 58 57 56 57 57 56 54 52 51 51 51 52 53 52 48 47 48 49 49 49 50 50 49 46 44 44 45 47 48 49 50 51 53 54 56 57 58 59 60 60 61 61 62 63 64 64 64 65 65 66 67 68 68 68 67 66 65 66 67 66 65 65 65 65 66 67 68
49 49 49 49 49 48 49 49 49 48 46 40 36 37 41 46 49 54 59 61 59 57 58 58 56 53 51 50 50 50 51 53 54 52 50 50 51 50 50 50 50 49 47 44 44 46 46 47 49 50 51 52 54 55 57 58 59 59 59 58 59 60 61 62 62 63 64 65 66 66 65 65 67 67 65 64 65 66 66 65 64 64 63 64 65 67
49 49 49 48 48 48 49 49 48 46 43 39 38 40 45 49 52 55 60 62 60 58 58 58 56 53 51 50 50 50 50 52 54 54 52 52 52 51 50 50 50 50 47 44 44 46 46 46 48 50 51 52 53 55 56 58 58 57 57 57 57 57 58 60 61 62 64 65 65 64 62 62 65 66 64 62 63 65 65 64 64 63 62 62 63 65
50 50 49 48 49 49 49 50 50 47 44 42 45 48 51 53 56 58 60 62 62 62 61 59 57 56 55 52 51 51 52 52 54 55 55 55 55 54 53 51 51 51 48 45 45 46 46 46 48 50 51 52 52 54 56 57 57 56 56 55 55 56 57 58 60 62 63 65 65 64 61 60 62 65 64 61 61 63 65 64 64 63 62 61 62 63
49 51 50 49 50 52 52 52 51 50 48 48 51 53 55 55 57 60 61 61 61 63 64 62 59 58 58 55 52 51 52 53 54 55 56 56 57 57 56 54 53 51 48 45 45 46 46 47 49 51 51 51 52 54 55 55 55 55 54 54 54 54 55 57 58 60 62 64 65 65 61 58 60 64 64 61 60 62 64 65 64 63 62 61 61 61
48 50 51 50 51 53 55 54 52 51 51 52 52 53 54 55 56 60 64 63 62 63 65 63 57 55 57 56 53 52 53 53 53 54 55 54 55 56 56 55 52 50 48 46 46 46 47 48 49 50 50 51 52 53 53 54 53 53 53 53 53 53 54 55 57 58 61 63 64 64 61 58 58 62 63 61 60 61 63 64 64 63 62 61 60 60
48 49 51 51 51 52 54 54 53 53 53 54 55 56 56 56 57 60 63 63 61 61 61 59 55 52 53 55 54 55 56 55 54 54 55 54 53 53 53 52 50 49 49 48 47 47 47 48 49 49 50 51 52 52 52 53 53 52 52 53 53 53 54 55 55 57 59 61 63 63 61 58 57 59 61 62 60 59 62 64 64 63 62 61 60 59
49 49 50 50 51 52 51 49 52 56 55 54 57 59 57 54 53 55 57 57 57 58 58 59 58 56 55 56 57 57 58 58 56 56 55 55 54 53 52 50 49 50 50 49 49 47 47 47 48 48 49 50 51 51 51 52 52 52 53 53 53 53 54 55 56 56 58 60 61 62 62 61 57 56 59 62 60 59 60 63 63 63 62 61 59 58
49 49 49 50 51 52 50 46 49 55 54 52 54 56 55 54 53 54 56 56 57 59 60 62 63 61 60 60 60 59 58 58 57 55 54 54 53 52 51 50 49 50 50 50 49 48 47 47 47 47 48 49 50 51 51 52 52 52 53 54 55 54 55 55 56 56 57 59 60 61 63 61 56 55 59 62 60 59 60 61 62 63 62 60 59 57
48 48 49 50 50 52 51 48 50 53 50 49 53 55 55 56 56 56 57 58 58 59 60 61 63 63 62 61 60 59 58 57 56 54 53 52 52 51 51 50 50 50 50 50 49 48 46 46 46 46 47 49 50 51 52 53 53 53 54 55 56 56 56 56 56 56 57 58 59 61 62 60 56 56 59 61 60 59 59 60 61 62 62 60 59 57
48 49 50 52 53 53 53 53 55 56 51 49 54 59 60 59 59 59 60 60 60 59 59 59 60 61 61 60 59 57 56 55 54 53 52 52 52 51 51 51 51 50 50 49 49 48 47 46 46 46 47 49 50 51 53 54 54 53 54 56 57 57 57 56 57 58 58 58 59 60 60 59 56 56 58 61 61 60 59 60 60 61 61 61 59 57
51 53 53 55 56 55 54 55 58 60 56 53 56 61 63 63 62 61 61 61 61 60 59 57 56 57 59 61 60 58 56 55 54 53 53 53 54 53 54 54 53 52 50 49 48 47 47 46 46 47 48 50 51 52 54 55 55 54 55 56 57 57 57 57 58 59 59 59 59 59 59 58 57 56 57 61 62 61 60 59 59 60 61 61 59 57
52 53 54 56 57 55 54 55 57 59 59 57 57 59 61 62 62 61 61 61 61 60 60 59 57 56 57 59 60 60 58 57 56 55 54 54 55 56 56 56 55 54 52 50 49 47 47 48 49 50 51 52 52 53 55 56 56 55 56 57 57 57 57 58 58 59 60 60 60 60 59 57 56 55 56 60 63 63 60 59 59 59 59 60 59 57
Wind_Direction
46 40 39 32 29 25 19 18 16 15 12 10 9 8 7 6 4 2 1 1 0 0 360 358 357 356 356 356 355 355 353 350 346 344 341 339 337 335 333 332 331 330 329 327 326 327 329 331 334 336 336 337 338 339 339 339 339 339 340 341 343 344 344 345 347 348 349 350 350 350 350 350 351 351 350 349 349 349 349 350 350 351 351 350 350 349
44 35 31 25 21 16 11 9 9 10 7 5 5 4 3 1 1 360 358 358 358 357 357 356 355 356 355 355 355 354 353 350 347 344 342 340 339 337 335 333 333 332 331 329 329 329 330 332 334 335 336 336 338 339 339 339 340 340 341 342 343 344 344 346 348 349 350 350 350 350 350 351 351 351 350 350 349 349 349 350 350 350 350 350 349 348
41 30 21 16 13 9 5 2 2 3 3 2 2 0 359 358 357 357 356 356 356 355 354 353 354 355 355 354 354 353 351 350 348 346 344 342 341 339 337 335 334 334 333 332 331 331 331 332 333 334 335 335 337 338 340 340 340 340 342 343 344 344 344 346 348 350 350 350 350 350 351 351 351 351 350 350 349 349 349 350 350 350 350 349 349 348
35 24 13 9 7 3 1 359 359 360 359 359 359 358 357 356 355 355 354 353 353 353 352 352 353 354 354 353 353 351 350 349 348 347 346 345 343 341 339 337 336 335 334 334 333 333 332 332 333 334 334 335 336 338 339 340 340 341 343 344 344 344 344 346 348 349 350 351 351 351 351 351 351 351 351 350 349 349 349 349 350 350 350 349 348 348
27 15 7 4 1 358 356 356 356 356 355 356 357 357 355 354 354 354 353 351 350 350 351 350 351 352 352 352 351 350 349 349 349 347 347 346 345 343 341 339 337 337 336 335 335 334 333 333 333 333 334 334 335 337 339 340 340 341 343 344 344 344 345 346 347 349 350 351 351 352 351 351 351 351 351 350 349 349 349 349 349 349 349 349 348 348
18 7 0 357 354 354 352 352 352 351 352 354 355 355 353 352 352 352 351 349 348 349 349 349 350 352 351 351 350 349 348 348 348 348 347 347 346 344 342 340 338 337 337 336 335 335 334 334 333 334 334 335 336 337 338 339 340 341 343 344 345 345 345 345 347 348 350 351 352 352 352 352 351 351 351 350 349 349 348 349 349 350 350 349 349 348
8 0 353 349 349 349 349 350 350 349 350 351 352 351 350 350 350 349 348 347 347 348 348 348 349 350 350 349 349 348 347 347 348 348 347 346 346 345 343 340 338 338 337 336 335 335 334 334 335 336 337 337 337 338 338 339 340 341 343 344 344 345 345 345 346 348 350 351 352 352 352 352 352 351 351 350 349 349 349 349 350 350 350 350 349 348
355 351 347 345 345 347 348 348 347 347 347 348 348 348 348 347 347 347 346 345 346 346 346 347 348 349 348 347 347 347 347 347 346 347 347 346 346 345 343 341 339 338 337 336 335 335 335 335 336 338 339 339 339 339 339 340 340 341 343 343 344 344 344 345 346 348 350 351 352 352 352 352 352 352 351 350 349 349 349 349 350 350 350 350 349 349
344 341 341 343 344 344 346 345 344 344 344 344 344 344 344 344 344 345 344 344 344 344 345 346 347 347 347 346 346 346 346 346 345 345 346 345 345 344 343 341 340 339 337 336 335 335 335 336 337 339 340 340 340 340 340 340 341 342 342 343 343 344 344 344 346 348 350 351 352 352 352 352 352 352 351 350 349 349 349 349 350 350 350 350 349 349
339 337 336 339 341 342 341 341 341 340 341 341 341 342 341 341 342 343 343 343 343 343 343 344 344 345 346 345 345 345 345 346 345 344 345 345 344 344 343 342 340 339 336 335 335 335 336 337 338 340 341 341 341 341 341 341 341 342 342 343 343 344 344 344 345 347 350 351 352 352 352 352 352 351 351 350 349 349 348 349 350 350 350 350 350 349
334 336 335 335 336 338 338 338 338 338 338 339 339 339 339 339 340 340 341 341 341 342 342 342 342 344 345 344 344 344 344 345 345 344 344 344 344 343 343 342 340 338 336 335 335 336 336 337 339 340 340 341 342 342 342 341 342 342 342 343 343 343 344 344 345 347 349 350 351 351 352 352 351 351 350 350 349 349 348 349 350 350 350 350 350 350
329 330 332 332 332 333 334 335 336 336 336 336 337 336 336 337 339 338 339 339 340 341 341 341 341 342 345 344 343 343 343 343 344 344 344 344 344 343 342 342 340 338 336 335 336 337 337 337 338 339 339 340 342 342 342 342 342 343 343 343 343 343 344 344 344 346 348 349 350 351 351 351 351 350 350 349 349 348 348 349 349 350 351 351 351 350
324 324 326 328 329 329 330 332 333 333 334 334 334 334 334 335 336 336 336 336 338 340 341 341 340 340 343 343 342 342 342 343 343 343 344 344 344 343 342 342 340 338 337 336 337 337 336 336 337 338 338 340 341 342 342 342 343 344 345 345 344 343 343 343 343 344 346 348 349 349 350 350 350 350 349 349 348 348 348 349 349 350 351 351 351 351
321 322 323 324 325 327 327 328 330 331 331 332 332 333 333 333 333 334 334 334 336 339 340 341 340 338 341 342 341 341 341 342 342 342 343 343 343 343 343 343 341 339 338 337 337 336 335 335 336 337 338 339 341 342 342 342 343 344 345 346 345 344 343 342 342 343 345 346 347 348 348 349 349 349 349 348 348 348 348 348 349 350 351 351 351 351
318 319 320 321 323 324 324 325 327 327 328 329 330 330 331 332 332 332 333 333 334 337 339 340 341 338 339 341 341 340 341 341 341 341 341 342 343 344 343 343 343 340 338 337 336 335 334 335 335 336 337 339 340 341 342 343 343 344 346 346 346 345 343 342 342 342 343 344 344 345 346 348 348 348 348 348 347 347 348 348 349 349 350 351 352 352
314 315 317 319 321 321 322 323 324 325 326 327 328 328 329 330 330 330 332 332 332 335 337 338 340 337 337 339 340 339 340 340 340 340 340 341 343 344 344 343 343 341 338 336 335 334 334 334 336 336 337 339 340 340 342 343 345 346 347 347 347 346 344 343 342 342 342 343 343 343 344 346 347 348 348 347 347 347 347 348 349 349 350 351 352 352
312 313 314 316 318 319 321 322 322 323 324 325 325 326 327 328 328 328 330 331 331 333 335 336 338 337 336 337 338 338 339 339 339 339 340 341 343 344 344 343 343 340 337 335 334 333 334 335 336 337 338 339 340 340 342 344 345 346 348 349 348 347 345 343 343 342 342 342 342 343 343 345 346 347 347 347 347 347 347 348 348 349 350 351 352 352
309 311 312 314 316 318 319 320 320 321 323 323 323 324 325 326 327 327 329 330 330 332 334 335 337 337 335 336 337 337 338 339 338 339 339 340 342 344 344 343 342 340 337 335 334 333 334 335 336 337 338 339 340 341 342 344 345 346 347 349 350 349 348 346 344 343 343 343 343 343 343 344 346 347 347 347 346 346 347 348 348 349 350 351 352 352
307 310 311 312 314 316 317 318 319 320 321 322 322 323 323 324 326 326 328 330 330 331 333 334 338 338 334 335 337 336 337 337 337 338 338 339 341 343 344 342 341 340 337 335 333 333 333 334 336 337 338 339 340 341 342 344 345 346 347 348 348 349 349 348 348 347 347 346 345 344 343 344 345 346 346 346 346 346 347 347 348 349 350 351 352 352
307 308 311 312 312 313 315 316 318 319 319 320 321 321 322 323 324 325 327 329 330 331 333 333 337 340 334 334 335 335 336 336 336 337 337 338 340 342 343 342 341 339 336 334 333 332 333 334 335 336 337 338 339 341 343 344 345 346 347 347 347 347 347 348 348 349 350 349 348 345 344 343 344 345 346 346 346 346 346 347 348 349 350 351 351 352
305 307 310 312 311 312 314 315 316 316 318 319 320 320 321 321 322 323 326 329 329 331 333 331 336 340 335 331 333 334 335 335 335 336 336 336 338 341 342 341 341 339 336 334 333 332 333 334 335 336 336 337 339 341 342 344 345 346 347 347 347 347 347 347 348 349 349 350 349 347 345 343 343 344 345 346 346 346 346 347 348 349 350 351 351 352
304 305 308 310 311 312 313 313 314 315 316 318 319 319 320 321 322 323 326 328 328 330 331 329 333 339 334 330 331 333 333 334 334 335 335 335 336 340 342 340 339 339 335 333 332 332 333 334 334 335 335 336 338 340 342 344 345 346 346 347 346 346 347 347 348 348 349 350 350 348 346 344 343 343 344 345 346 346 346 347 348 349 350 351 351 352
303 304 305 307 308 310 311 312 313 314 315 317 319 319 320 321 321 322 325 326 326 328 328 326 330 335 333 329 330 331 332 332 333 333 334 334 335 338 341 340 338 337 334 332 331 331 332 333 334 335 335 336 337 339 341 343 344 345 345 345 345 345 345 346 347 348 349 350 350 349 347 345 343 343 343 345 345 346 346 347 348 349 349 351 351 352
301 302 302 303 304 308 311 312 312 313 313 316 319 319 320 320 320 321 323 324 325 326 325 324 327 331 332 329 328 330 331 331 332 332 333 334 334 337 340 339 337 336 333 331 330 331 331 332 333 334 335 336 337 339 341 342 343 343 344 344 343 344 344 345 346 347 348 350 351 351 349 346 344 343 343 344 345 345 346 346 347 348 349 351 351 352
301 302 303 302 302 303 306 309 311 311 312 316 318 319 320 320 319 320 322 323 324 324 323 323 325 328 330 328 326 328 330 330 332 332 332 333 333 335 339 338 335 335 332 330 329 330 331 331 332 333 334 335 336 338 339 340 341 342 342 342 341 342 343 343 344 346 347 349 350 351 350 348 345 343 343 343 344 345 345 346 347 348 349 351 351 352
301 303 306 306 306 306 307 309 311 310 311 314 316 317 319 319 318 319 321 322 322 320 321 324 323 324 328 327 325 327 328 328 330 330 331 332 331 333 338 337 335 334 332 329 329 329 329 330 331 331 332 333 334 335 337 338 339 339 339 339 339 340 341 342 343 345 347 348 349 350 350 349 347 345 343 343 344 345 345 345 346 347 349 350 351 352
300 302 305 307 308 309 311 313 312 310 311 313 314 316 317 316 316 317 319 320 319 317 320 323 321 321 326 326 323 325 325 325 328 330 330 331 330 332 336 337 334 332 331 329 328 328 328 328 329 330 331 332 332 332 333 335 335 336 336 337 337 338 339 340 342 344 346 347 348 349 350 349 348 346 344 343 343 344 344 345 346 347 349 350 351 352
299 301 304 305 306 308 310 311 311 310 311 311 313 314 314 313 314 316 317 318 316 316 319 321 319 320 325 325 323 325 324 325 328 329 330 331 329 331 335 336 333 331 330 328 326 326 326 327 328 328 329 331 331 331 331 333 334 334 334 335 336 336 337 338 340 342 344 347 348 348 349 349 349 348 346 344 343 344 344 344 346 347 348 350 351 352
300 300 302 303 304 306 308 309 309 309 310 311 312 313 311 311 312 314 315 316 315 316 318 319 317 320 324 323 322 324 324 325 329 331 333 332 329 330 334 335 331 329 328 326 324 324 325 325 326 326 327 329 329 329 330 331 332 332 333 334 334 335 336 337 339 340 342 346 348 348 348 349 350 349 347 345 343 343 343 344 345 347 348 350 351 352
301 301 301 301 301 303 305 307 307 307 308 310 312 311 309 310 311 313 314 315 314 315 316 316 316 320 322 320 320 323 323 326 329 332 335 333 326 328 334 334 329 327 326 324 323 323 323 324 325 325 326 327 327 328 329 330 330 331 331 333 333 334 336 337 338 339 341 344 348 349 348 349 350 349 348 346 344 343 343 343 344 346 348 349 351 352
300 300 300 300 300 301 303 304 304 305 306 308 309 308 308 309 310 312 313 313 313 314 315 314 315 318 319 318 319 322 323 325 329 332 335 331 323 326 333 333 328 325 324 323 322 322 322 323 323 324 325 326 326 327 328 328 329 329 330 332 333 334 335 336 338 339 340 343 347 349 349 349 350 349 348 347 345 344 343 343 344 346 347 349 350 351
299 300 300 299 299 300 301 301 301 302 304 307 308 307 307 308 309 310 311 312 313 313 313 312 313 316 317 317 318 321 322 325 329 333 335 328 322 326 332 332 328 325 323 322 321 321 322 322 322 323 324 325 326 326 327 327 327 328 330 332 333 334 336 337 338 339 340 343 347 349 349 349 350 349 348 347 346 344 343 342 343 345 347 348 350 351
298 298 299 298 298 299 300 299 299 300 302 305 306 306 305 306 307 308 310 311 313 312 310 310 312 315 316 317 318 320 321 324 328 334 333 325 323 328 332 330 328 324 322 322 321 321 321 321 321 322 323 324 325 325 326 326 327 328 330 332 333 334 335 336 338 339 340 342 346 349 349 349 350 350 348 347 346 345 344 342 343 345 346 348 349 350
297 297 297 297 298 299 299 298 298 300 302 304 306 306 305 305 306 307 308 309 311 309 307 307 311 314 315 317 318 319 321 323 327 334 332 322 322 329 331 329 326 323 322 321 319 319 319 319 320 321 322 323 324 324 325 326 327 329 330 332 333 333 334 335 337 339 340 342 346 348 349 348 349 350 349 347 346 345 344 343 343 344 346 347 349 350
296 296 297 297 298 299 299 299 299 299 302 306 308 306 305 305 306 305 305 307 309 306 304 306 310 313 314 316 318 319 320 322 326 332 331 321 321 326 327 326 324 321 320 319 318 318 318 318 319 320 322 322 323 324 326 326 328 329 330 331 331 332 333 335 337 339 340 342 345 348 349 349 348 350 350 349 346 345 344 343 343 344 345 347 348 349
296 296 297 298 298 300 300 301 301 302 305 308 308 305 304 305 306 304 303 305 306 303 303 307 310 312 313 315 317 318 319 320 324 329 327 319 318 320 321 322 321 319 318 317 317 317 317 318 319 320 321 322 323 324 326 326 327 328 329 330 330 331 332 335 337 339 340 342 344 346 349 350 348 349 351 350 347 345 343 343 343 344 345 346 347 349
298 299 300 301 302 304 304 305 305 306 309 311 309 308 308 307 306 303 302 305 306 304 305 308 310 311 313 315 316 317 318 319 322 325 322 317 317 318 318 319 319 318 318 316 315 316 316 317 319 319 320 321 323 324 325 326 327 327 328 329 330 331 333 336 338 340 340 340 341 343 348 350 350 349 350 351 349 346 344 343 343 343 345 346 347 348
302 303 305 306 307 309 309 309 310 311 314 315 313 312 311 308 305 302 302 306 308 307 307 309 309 311 314 315 316 316 316 317 320 322 320 317 318 318 317 317 318 318 317 315 314 314 315 316 317 318 319 321 322 323 324 325 326 328 329 330 331 332 335 337 338 339 340 339 339 340 344 349 350 349 349 351 350 347 344 343 342 343 344 345 346 348
305 306 307 309 311 312 312 312 313 314 317 317 313 311 309 305 302 300 302 306 309 309 309 309 311 313 315 315 314 315 315 315 317 320 320 318 318 318 316 316 316 316 316 314 313 313 313 314 315 316 318 321 322 323 324 326 327 329 330 331 333 334 337 338 340 340 340 338 338 338 341 345 349 349 348 349 350 348 345 343 342 342 343 345 346 347
307 308 309 311 312 312 311 311 312 314 317 316 311 307 304 301 300 299 301 306 311 311 311 312 313 314 314 313 312 313 314 314 315 318 319 317 316 316 314 313 313 313 313 312 310 310 311 312 313 315 318 320 321 323 325 327 329 331 332 334 335 337 338 340 341 341 340 339 338 338 339 343 347 349 348 348 349 348 346 344 342 342 343 344 345 347
307 308 309 311 311 310 309 309 309 311 314 311 307 305 303 300 299 299 302 308 313 314 314 314 314 313 311 310 311 311 312 312 312 314 315 314 314 313 311 310 309 309 310 309 307 307 309 311 313 315 317 320 322 324 327 329 331 333 334 335 337 338 339 341 342 341 340 340 340 340 340 342 346 348 348 347 347 347 346 344 343 342 342 343 345 347
307 308 309 310 309 308 307 306 306 308 308 305 304 304 302 300 299 300 303 309 313 313 312 312 312 310 308 308 309 309 309 309 309 310 311 311 311 311 310 309 308 307 308 307 306 307 309 312 314 316 318 320 323 325 328 331 333 334 335 336 337 338 339 341 341 342 341 342 342 342 342 342 345 348 348 346 346 346 345 344 343 342 342 343 344 346
309 309 308 308 307 306 306 305 306 307 307 304 304 303 301 300 301 302 303 307 310 309 308 309 309 308 306 306 307 308 308 309 309 310 310 310 310 310 310 310 309 308 308 307 307 308 311 314 315 316 318 321 323 326 329 332 333 334 334 335 336 338 339 340 341 342 342 343 343 343 342 343 346 349 349 346 345 345 344 344 343 342 341 342 343 346
310 309 307 307 306 306 306 306 308 308 306 305 304 301 299 300 301 300 302 305 307 306 305 307 308 307 306 307 310 312 311 310 311 311 310 311 311 310 311 311 310 309 309 309 309 311 314 315 316 316 318 321 324 326 330 332 332 333 333 335 336 338 339 340 341 342 342 343 343 343 342 344 347 348 348 346 344 344 344 344 343 342 341 341 342 345
311 308 307 306 306 304 304 306 308 306 304 305 305 301 299 298 298 299 303 306 307 305 306 307 309 308 308 309 311 311 310 309 310 310 310 311 311 310 311 312 311 310 310 311 311 313 315 315 314 315 317 320 324 327 329 330 331 332 333 334 335 337 338 339 340 342 342 343 343 343 343 344 346 347 347 346 344 343 344 343 343 342 341 340 341 343
311 309 308 306 305 303 303 305 305 303 304 306 306 305 304 303 301 301 304 307 308 308 308 309 309 309 308 307 308 309 308 309 310 310 310 310 310 310 311 311 311 311 312 313 313 313 313 312 312 314 317 321 324 326 328 328 329 331 332 332 335 337 338 339 340 341 342 342 342 342 343 345 346 347 347 346 344 343 343 343 342 342 341 340 340 342
311 309 309 308 307 306 305 303 301 302 304 304 304 305 307 307 306 305 305 305 305 306 307 307 307 307 307 307 308 308 308 309 309 310 310 309 309 310 311 311 311 311 312 313 312 311 310 309 310 314 318 321 323 325 326 326 328 330 331 331 334 337 338 339 339 340 341 341 341 342 343 345 346 347 347 346 344 343 342 341 341 341 340 339 340 341
310 308 307 307 306 305 305 304 302 301 303 303 303 303 303 302 303 304 304 303 303 303 304 305 306 306 306 307 308 308 308 308 309 309 309 309 308 309 310 309 309 309 310 311 310 309 307 308 311 315 318 320 321 323 324 325 326 328 329 330 332 336 337 338 338 338 339 340 340 341 342 344 345 346 346 344 343 342 341 340 340 340 339 338 338 339
307 306 306 305 304 304 305 305 303 301 301 301 302 302 301 301 302 302 303 304 304 304 305 305 306 307 307 307 307 308 308 308 308 308 308 307 307 307 307 306 306 306 308 309 308 307 306 308 311 314 317 318 320 322 323 323 324 326 327 328 331 334 336 337 337 336 338 339 339 339 341 343 343 345 345 343 342 341 340 339 339 338 338 337 337 337
306 307 306 305 305 306 306 305 304 303 303 302 301 301 302 302 303 303 303 304 305 305 306 306 306 307 308 309 309 309 309 309 308 307 306 306 306 305 304 304 304 304 305 306 306 305 305 307 310 313 315 317 319 320 321 321 323 324 324 326 329 332 333 335 335 335 335 336 337 337 339 341 341 343 344 342 340 339 338 337 337 337 336 336 335 336
308 308 308 307 307 308 308 307 305 306 306 305 303 303 303 304 304 305 305 305 305 306 306 306 306 306 306 308 309 309 309 309 308 307 306 305 304 304 303 303 303 304 304 305 304 303 302 304 307 310 312 314 316 318 319 319 321 322 322 324 327 329 330 332 333 333 333 334 334 335 338 339 339 341 343 341 338 337 336 335 335 335 335 334 334 334